Theta_e
354 355 356 356 357 357 355 355 352 350 349 355 354 353 355 351 345 346 351 353 348 349 352 353 352 350 346 345 342 341 345 348 347 341 345 345 347 338 340 344 346 346 348
353 355 355 358 362 360 356 351 346 336 338 342 351 353 352 352 349 345 351 355 352 352 351 351 351 350 350 350 350 340 348 351 348 345 347 349 347 345 348 349 352 351 352
355 357 360 358 359 359 350 345 342 338 342 344 344 346 352 350 346 354 353 351 350 351 352 351 351 347 346 348 350 351 350 348 346 347 347 347 347 346 340 345 347 352 353
356 357 359 358 358 351 345 341 343 343 342 342 342 341 343 344 344 343 343 343 343 343 345 342 343 342 346 350 350 348 343 340 342 341 341 338 335 333 334 334 337 340 345
351 353 347 340 338 340 340 336 338 341 340 342 343 341 341 340 338 340 341 340 342 339 339 339 337 339 339 337 339 340 335 333 333 334 333 333 333 333 335 336 337 339 338
335 334 335 337 341 339 337 338 334 337 338 339 341 340 338 337 337 337 340 337 333 332 334 336 336 336 336 333 332 332 334 333 332 331 332 333 334 335 336 336 338 340 338
333 333 334 335 337 338 339 337 338 340 339 341 340 341 338 336 333 327 324 325 328 333 332 331 332 331 333 334 334 333 332 330 329 328 327 327 327 328 332 334 335 336 338
337 337 337 337 337 337 337 338 338 339 341 342 341 337 334 331 328 323 323 325 325 327 327 327 327 326 325 324 323 325 329 328 325 324 324 323 322 324 327 326 324 325 328
339 337 336 336 335 336 338 339 340 339 338 337 337 337 335 331 327 325 322 325 327 326 326 326 325 325 324 323 323 323 323 324 323 323 322 321 322 322 323 323 323 322 322
336 335 337 338 339 338 338 338 337 337 335 334 333 333 333 331 329 322 321 321 321 323 325 324 324 323 322 320 317 315 315 315 315 317 321 323 325 326 326 326 326 326 325
342 343 341 341 338 336 334 333 333 334 333 333 333 334 333 331 328 323 322 321 323 324 324 322 321 320 317 313 311 312 314 316 317 318 323 325 324 323 323 325 327 326 326
339 338 337 336 335 334 332 331 329 328 328 329 330 330 333 331 328 323 322 321 321 321 321 319 314 312 312 314 316 317 320 322 322 323 320 317 316 316 318 321 323 325 324
334 334 333 332 331 330 327 328 328 321 325 326 327 330 331 329 325 324 322 320 318 317 315 313 315 316 319 320 321 322 321 319 319 316 316 315 315 315 315 315 316 318 321
331 330 329 327 328 326 326 325 318 315 317 325 327 326 324 324 324 321 318 314 312 313 314 315 316 318 316 316 316 317 317 316 316 316 316 316 316 315 314 314 315 317 319
330 327 326 326 326 325 320 318 318 316 315 317 324 324 322 317 314 313 313 313 314 315 315 316 317 317 316 315 316 316 316 315 315 314 313 312 312 313 314 314 315 316 319
327 324 326 325 324 323 321 320 318 316 316 316 315 316 316 315 315 315 315 315 315 315 316 316 316 317 316 315 315 315 315 314 313 311 310 310 310 312 313 313 314 315 316
325 322 325 324 323 322 320 320 319 317 316 316 316 316 316 316 315 315 315 315 315 315 316 316 316 316 316 314 314 314 314 312 310 309 308 309 309 309 309 310 310 311 313
320 321 321 321 320 319 319 318 318 318 318 317 317 317 316 316 316 316 316 316 316 316 316 316 315 314 313 313 313 312 312 310 309 308 307 307 307 307 308 309 310 311 311
318 318 317 318 318 318 319 318 318 318 318 318 318 317 317 317 316 316 316 316 316 316 316 314 313 313 312 311 310 310 309 308 307 307 307 307 306 306 305 305 306 307 307
320 319 318 318 318 318 318 319 319 318 318 317 317 317 318 317 316 315 316 317 317 316 313 313 312 311 310 309 308 308 307 306 306 306 306 306 305 303 303 303 304 304 306
319 319 321 322 320 319 319 321 319 319 318 318 318 318 317 317 317 316 316 316 316 314 313 312 310 308 308 308 307 306 306 305 305 305 305 305 304 303 302 301 302 303 304
318 318 319 320 321 321 320 320 320 320 319 318 318 318 318 318 316 315 315 316 316 314 313 311 308 306 306 305 304 305 305 305 304 304 304 304 303 303 301 301 300 300 302
316 319 320 319 319 318 316 317 318 317 316 316 317 318 317 316 316 315 315 315 315 314 313 312 309 306 306 307 304 304 305 305 304 303 303 303 303 302 301 301 300 300 299
318 318 318 319 318 317 317 317 317 316 316 317 315 316 316 316 314 315 314 314 314 313 312 312 311 310 309 309 309 309 307 307 306 305 303 303 303 303 302 302 301 300 299
318 317 317 317 317 317 316 317 317 317 317 318 316 316 316 316 316 316 314 313 314 312 312 312 311 311 310 309 309 309 309 309 309 307 306 305 304 303 302 301 300 299 299
318 317 317 317 317 317 317 316 317 317 318 318 318 317 316 316 316 315 314 312 313 312 312 311 311 311 310 310 310 310 309 309 309 309 308 307 305 304 301 300 299 299 300
Wind_Speed
37 37 34 24 18 16 16 12 11 6 23 29 30 28 23 24 19 20 16 15 16 16 11 9 10 13 15 13 17 21 16 14 7 4 15 26 33 33 26 17 18 22 23
34 25 21 19 19 21 18 16 11 20 17 18 20 25 24 21 15 17 11 9 10 9 8 9 11 14 15 15 16 12 10 9 10 13 22 20 23 20 16 21 22 22 22
26 23 23 26 25 23 22 14 13 18 13 13 14 13 31 15 8 10 11 10 6 5 5 4 11 13 15 13 10 9 8 9 7 7 7 7 12 12 14 16 20 19 19
27 29 28 28 26 22 12 8 5 12 10 9 6 8 11 16 15 14 14 15 13 13 12 11 9 6 3 9 12 9 6 4 4 5 6 7 7 7 7 5 4 5 10
29 33 34 29 23 18 21 17 13 16 14 10 13 14 12 11 9 8 9 8 7 7 6 5 5 1 6 4 4 5 4 2 4 5 5 6 8 4 6 6 12 14 15
30 29 25 26 25 22 15 14 17 12 8 7 9 8 4 4 4 4 3 10 9 8 7 8 8 7 7 5 7 6 3 3 4 7 8 9 12 10 10 12 12 11 4
23 24 21 22 18 14 14 14 14 11 7 9 7 7 9 14 12 11 11 9 11 10 10 6 4 4 5 6 7 5 3 2 5 8 11 14 17 19 18 17 14 11 13
22 22 21 21 19 17 16 13 12 11 8 9 11 14 12 12 11 8 9 9 8 8 7 5 3 3 2 3 2 1 2 1 3 7 11 16 17 18 21 23 26 25 27
28 25 21 18 17 15 14 13 11 12 12 12 12 11 11 12 10 10 10 11 14 12 11 9 7 7 7 7 6 6 5 7 9 12 13 14 16 19 20 23 24 22 16
20 22 22 19 21 19 17 16 13 10 8 8 10 9 10 12 10 12 14 13 13 13 13 11 8 8 8 9 11 12 13 15 13 13 11 12 13 12 12 13 16 16 19
25 24 21 18 19 18 17 15 14 11 11 9 9 8 9 10 11 12 13 16 15 14 11 8 8 11 12 14 14 12 10 9 9 9 9 7 8 11 15 16 15 15 20
27 27 21 21 19 18 18 13 11 8 7 7 5 7 8 10 11 11 11 10 10 10 8 9 13 15 15 11 9 9 8 3 6 8 8 11 16 19 20 19 15 13 15
26 22 21 20 18 16 18 17 15 15 16 15 11 14 16 16 13 10 8 8 6 6 5 10 11 11 11 11 8 10 9 9 8 8 10 12 14 15 17 19 21 20 20
23 21 20 22 22 21 21 20 15 12 16 18 18 20 19 15 11 7 5 5 4 6 8 11 11 11 14 14 15 13 9 7 7 7 7 10 13 15 16 16 20 22 20
20 16 16 18 18 20 16 18 15 14 15 20 19 19 15 9 8 8 6 5 6 9 11 12 11 7 9 11 10 9 9 8 7 9 11 12 12 15 18 19 19 18 14
18 13 13 16 17 14 12 13 9 11 11 13 15 14 11 9 7 4 2 2 4 7 7 10 8 1 2 5 4 4 6 6 7 9 12 13 11 13 16 19 19 18 18
15 13 15 14 15 15 12 10 10 9 7 8 8 8 8 7 5 2 3 6 7 9 8 8 5 1 3 5 6 7 6 4 8 15 16 12 11 12 13 15 17 17 16
19 18 17 15 17 16 16 17 14 12 10 7 9 9 8 7 7 6 8 11 13 9 5 3 3 4 5 6 8 7 8 11 16 16 14 14 13 13 12 12 13 15 15
19 17 16 17 14 13 11 9 8 8 8 7 3 2 7 11 11 12 12 12 12 5 5 5 5 5 5 5 4 6 10 13 12 13 13 12 14 15 18 16 15 16 17
11 7 6 8 7 7 8 8 7 6 5 4 2 1 4 5 6 7 7 7 7 7 10 6 4 6 6 6 5 8 10 10 11 11 11 11 12 15 15 15 15 15 16
11 8 3 5 2 3 4 7 10 10 9 7 6 3 5 7 9 10 10 5 5 12 9 3 7 8 6 6 8 10 10 10 10 11 10 11 14 15 14 15 15 16 16
12 11 9 7 2 2 3 3 1 4 1 3 6 6 7 9 6 11 7 5 7 12 6 4 8 7 6 7 9 9 10 11 11 11 12 13 14 15 16 18 19 19 17
7 5 8 8 6 3 2 3 3 1 4 6 6 6 8 8 9 11 8 10 11 13 7 5 5 4 4 5 6 8 10 11 10 11 12 13 15 16 17 20 21 22 20
2 5 7 4 3 1 2 2 4 3 2 4 5 6 7 9 8 7 3 7 12 12 11 9 7 7 8 9 10 10 11 11 12 12 13 16 18 19 20 23 23 24 25
4 6 5 3 4 2 1 2 3 4 5 8 9 8 7 9 9 10 11 10 13 14 15 14 13 12 12 12 13 14 13 14 15 16 17 18 20 22 23 24 23 24 26
3 3 1 2 2 2 7 8 8 7 10 12 13 11 8 9 10 11 13 11 13 18 18 19 19 17 15 15 17 18 16 16 18 17 19 21 23 24 24 24 24 24 26
Wind_Direction
210 211 212 210 202 194 206 217 242 249 301 290 265 247 220 216 215 225 234 230 234 238 245 233 223 231 206 226 203 191 196 168 157 139 241 235 242 249 251 255 262 268 272
211 210 200 189 186 185 172 181 222 282 259 287 302 269 229 223 224 209 234 217 235 242 231 229 210 195 193 199 199 194 194 188 174 202 217 230 223 231 260 266 265 276 272
206 193 182 186 182 192 189 221 277 279 299 335 300 324 233 227 205 160 163 197 163 138 133 186 204 200 192 196 225 221 194 174 181 206 216 228 232 242 279 275 263 269 266
182 174 166 165 173 175 164 217 242 260 270 300 13 94 69 81 90 81 82 93 89 80 82 76 73 73 159 175 190 191 162 153 169 193 241 247 239 235 282 321 313 305 291
147 151 146 144 147 144 147 142 135 126 121 116 104 101 111 99 19 42 52 42 46 25 55 68 58 134 225 187 184 185 234 258 301 300 292 279 282 312 320 314 320 318 300
127 125 134 134 137 141 151 165 157 118 120 127 136 152 162 142 136 147 172 193 156 140 122 100 103 84 78 116 129 125 92 32 6 340 324 303 294 300 289 301 306 308 306
126 128 138 140 147 151 147 150 125 121 135 116 121 146 130 119 113 139 160 154 150 149 131 126 118 84 86 99 110 114 123 56 351 336 326 318 315 312 307 300 296 293 279
147 143 146 144 138 140 137 130 124 127 123 129 133 134 125 110 108 114 129 134 124 107 106 99 71 56 20 337 348 358 351 353 322 317 312 307 300 299 297 297 298 298 294
146 147 148 149 149 146 133 126 124 123 127 129 130 136 128 120 111 111 119 110 105 86 81 92 97 85 61 48 34 19 341 309 308 294 290 295 296 297 296 295 285 286 291
143 134 136 151 151 136 130 125 123 130 126 130 124 128 136 132 112 95 99 101 95 90 91 87 68 46 19 360 346 329 315 313 313 306 307 312 326 338 333 302 288 269 266
148 143 132 152 140 134 131 129 128 131 132 123 127 133 139 131 112 85 78 81 84 83 79 43 17 354 339 326 320 313 309 314 307 312 333 10 26 8 6 8 357 300 270
134 124 141 141 134 134 123 118 105 113 114 106 101 118 136 140 118 102 96 83 69 52 31 7 347 336 328 331 337 340 343 29 75 84 51 17 2 351 343 342 347 345 336
126 144 148 141 137 124 119 119 110 104 101 96 107 108 123 134 128 121 87 73 56 46 15 353 359 9 19 40 53 78 64 67 69 44 17 3 357 354 342 338 327 326 320
137 149 151 143 124 114 117 125 128 135 126 123 118 114 117 120 117 119 107 94 68 27 6 10 29 72 56 40 49 55 48 29 10 13 15 355 344 344 341 349 346 340 334
146 152 141 133 133 136 128 123 118 100 111 132 137 131 131 131 125 119 114 82 34 11 0 7 30 44 26 22 34 30 9 353 360 4 356 351 339 329 325 329 331 331 325
140 140 141 137 126 130 132 133 117 113 118 116 124 120 128 131 131 123 89 28 352 342 337 351 6 38 14 14 13 352 336 344 352 351 347 347 347 345 333 331 330 328 323
162 149 171 149 139 138 143 132 143 147 146 151 160 160 165 168 177 205 295 309 310 311 313 328 319 203 306 327 331 320 309 319 338 341 336 337 344 344 333 319 317 314 314
117 126 135 136 133 130 128 128 132 137 151 185 203 221 229 234 244 272 294 309 307 308 300 282 202 277 296 309 314 314 317 323 327 330 331 334 342 345 338 330 330 325 323
116 113 115 127 144 152 156 159 146 137 150 156 153 276 247 245 252 259 276 292 301 289 219 211 235 266 280 308 299 299 310 319 323 327 335 339 343 341 332 329 326 324 320
102 107 124 129 142 158 171 183 188 215 219 209 215 184 199 207 266 288 280 280 291 226 200 204 278 294 291 295 310 317 315 323 325 328 329 328 328 334 333 327 327 322 321
76 64 160 208 208 226 257 275 253 229 228 243 267 235 232 283 296 305 315 311 284 209 203 232 336 322 303 311 315 324 319 325 327 324 321 312 321 325 331 334 331 326 325
61 72 98 98 57 343 358 360 122 193 208 311 307 283 275 277 275 290 302 333 271 233 239 314 347 353 344 345 348 343 326 327 331 325 319 314 318 323 328 332 332 327 330
44 77 128 132 139 140 37 5 200 235 331 317 307 290 290 283 294 319 294 309 259 237 258 285 343 350 332 338 316 318 323 328 325 313 305 305 310 315 320 321 322 320 314
108 105 109 110 161 43 9 344 210 274 283 317 280 261 264 285 295 317 300 308 248 237 262 263 282 291 287 289 289 292 293 299 308 309 300 299 303 308 311 313 313 313 311
143 154 132 138 184 202 295 270 262 283 290 274 263 259 276 286 296 304 305 305 250 254 266 264 269 283 279 288 291 288 289 291 290 292 292 295 298 302 303 305 307 309 305
258 250 295 68 96 274 245 257 277 286 277 287 259 260 269 270 280 290 296 285 277 260 268 263 260 273 276 279 281 282 282 280 280 284 285 287 291 294 297 300 303 301 300